Regional Weather Roundup
Issued by NWS

Home | Current Version | Previous Version | Text Only | Print | Product List | Glossary Off
Versions: 1 2 3 4 5 6 7 8 9 10 11 12 13 14 15 16 17 18 19 20 21 22 23 24 25 26 27 28 29 30 31 32 33 34 35 36 37 38 39 40 41 42 43 44 45 46 47 48 49

000
ASUS45 KBOU 281307
RWRCO

WEATHER ROUNDUP FOR COLORADO
NATIONAL WEATHER SERVICE DENVER/BOULDER CO
700 AM MDT MON JUL 28 2014

NOTE: "FAIR" INDICATES FEW OR NO CLOUDS BELOW 12000 FEET WITH NO
SIGNIFICANT WEATHER AND/OR OBSTRUCTIONS TO VISIBILITY.

COZ001>005-013-030-031-281400-
...NORTHWEST COLORADO...

CITY           SKY/WX    TMP DP  RH WIND       PRES   REMARKS
CRAIG          CLEAR     49  48  97 CALM      30.39R
HAYDEN         CLEAR     57  45  62 E10       30.41R
MEEKER         MOCLDY    62  48  60 NE3       30.40R
MOUNT WERNER   NOT AVBL
STEAMBOAT SPGS CLEAR     53  47  79 SE5       30.44R
WALDEN         SUNNY     43  37  81 SE6       30.52S
$$

COZ006>008-011-281400-
...WEST CENTRAL VALLEYS...

CITY           SKY/WX    TMP DP  RH WIND       PRES   REMARKS
GRAND JUNCTION MOCLDY    69  49  48 CALM      30.30S
MONTROSE       CLOUDY    68  51  54 S6        30.40R
EAGLE          MOCLDY    55  50  82 CALM      30.46S
RIFLE          MOCLDY    64  50  60 CALM      30.36R
DELTA          CLOUDY    70  55  58 NE5       30.35R
NUCLA          CLOUDY    64  52  63 E6        30.43F
$$

COZ017>023-064>068-281400-
...SOUTHWEST COLORADO...

CITY           SKY/WX    TMP DP  RH WIND       PRES   REMARKS
DURANGO        PTCLDY    59  56  89 CALM      30.44F
CORTEZ         CLOUDY    64  59  83 CALM      30.39R
PAGOSA SPRINGS PTCLDY    56  55  95 NE3       30.53F
TELLURIDE      NOT AVBL
WOLF CREEK PAS NOT AVBL
$$

COZ009-010-012-014-032>034-037-058>063-281400-
...CENTRAL COLORADO...

CITY           SKY/WX    TMP DP  RH WIND       PRES   REMARKS
ASPEN          MOCLDY    55  46  71 S5        30.51R
BUENA VISTA    MOCLDY    56  51  83 NW3       30.55R
COPPER MTN     PTCLDY    54  37  54 W9        30.80S
BERTHOUD PASS  PTSUNNY   45  32  61 N5        30.85S
COTTONWOOD PAS CLOUDY    54  50  87 E3        30.66S
GUNNISON       CLOUDY    55  48  76 CALM      30.55R
KREMMLING      CLOUDY    54  46  76 CALM      30.51S
LEADVILLE      MOCLDY    49  45  86 NE5       30.66S
MONARCH PASS   FOG       45  43  93 SW16      30.90R VSB<1/4
SALIDA         MOCLDY   N/A N/A N/A CALM      30.58F
SUNLIGHT       CLOUDY    54  45  71 CALM      30.73S
WILKERSON PASS NOT AVBL
$$

COZ069>075-281400-
...SAN LUIS VALLEY/SANGRE DE CRISTO MOUNTAINS...

CITY           SKY/WX    TMP DP  RH WIND       PRES   REMARKS
ALAMOSA        CLOUDY    56  54  93 CALM      30.51S
LA VETA PASS   CLOUDY    48  45  87 SW12G22   30.64R
SAGUACHE       CLOUDY    55  54  94 SE3       30.57S
$$

COZ035-036-038>040-281400-
...NORTHERN COLORADO FRONT RANGE...

CITY           SKY/WX    TMP DP  RH WIND       PRES   REMARKS
DENVER INTL AP MOSUNNY   64  55  72 SW5       30.34R
DMNS CITY PARK   N/A     65  58  79 W3        30.35R
AURORA         MOSUNNY   61  55  79 SW6       30.37R
FRONT RANGE AP NOT AVBL
ERIE MUNI ARPT PTSUNNY   63  60  91 N3        30.33S
BOULDER MUN AP PTSUNNY   63  55  77 CALM      30.34S
CENTENNIAL     MOSUNNY   63  55  75 NW3       30.38R
BROOMFIELD     PTSUNNY   64  57  77 N6        30.36S
FORT COLLINS   MOSUNNY   61  57  88 N7        30.35R
LONGMONT       MOSUNNY   67  58  74 CALM      30.35R
$$

COZ041-046-047-076>085-087-088-281400-
...PIKES PEAK/PALMER DIVIDE AND SOUTHERN FOOTHILLS...

CITY           SKY/WX    TMP DP  RH WIND       PRES   REMARKS
COLO. SPRINGS  PTSUNNY   61  58  90 CALM      30.42S
A. F. ACADEMY  SUNNY     55  55 100 CALM      30.43S
ELLICOTT       SUNNY     60  59  96 CALM      30.40F
FALCON         FOG       56  56  99 CALM      30.46S VSB<1/4
FORT CARSON    CLOUDY    60  60 100 N1        30.39S
LIMON          MOSUNNY   59  58  96 S6        30.38F
MONUMENT HILL  SUNNY     55  52  88 S9        30.44S
TRINIDAD       CLOUDY    62  57  83 NW7       30.39R
$$

COZ042>045-048>051-090-091-281400-
...NORTHEAST COLORADO...

CITY           SKY/WX    TMP DP  RH WIND       PRES   REMARKS
GREELEY ARPT   MOSUNNY   61  55  82 NE5       30.32S
AKRON          SUNNY     64  54  69 S6        30.34S
BURLINGTON     CLOUDY    66  63  90 S10       30.35R
WRAY             N/A     64  50  61 E8        30.32S
STERLING       PTSUNNY   64  55  72 CALM      30.30S
HOLYOKE        MOSUNNY   61  54  77 E7        30.32S
FORT MORGAN    SUNNY     64  57  80 E6        30.32S
$$

COZ086-089-092>099-281400-
...SOUTHEAST COLORADO...

CITY           SKY/WX    TMP DP  RH WIND       PRES   REMARKS
PUEBLO         MOSUNNY   65  63  93 E3        30.33S
LA JUNTA       PTSUNNY   68  66  93 NE3       30.31F
LAMAR          CLOUDY    68  62  81 S7        30.29F
SPRINGFIELD      N/A     61  60  97 S8        30.37R
$$


USA.gov is the U.S. government's official web portal to all federal, state and local government web resources and services.